DL7GAI-7 Weather Reports


time (UTC)temp
C
wind
direction
speed
KPH
gust
KPH
rain 1hr
cm
rain 24hr
cm
rain mn
cm
humidity
%
barometer
mb
20260510110049 19 225 6.4 17.7 0.00 0.00 0.00 55 1008.7
20260510104610 19 225 6.4 17.7 0.00 0.00 0.00 55 1008.7
20260510103255 20 225 6.4 9.7 0.00 0.00 0.00 55 1008.6
20260510101810 20 225 6.4 9.7 0.00 0.00 0.00 55 1008.6
20260510100345 18 225 6.4 14.5 0.00 0.00 0.00 58 1009.2
20260510095025 18 225 6.4 14.5 0.00 0.00 0.00 58 1009.2
20260510093745 18 225 6.4 14.5 0.00 0.00 0.00 58 1009.2
20260510092400 17 225 8.0 14.5 0.00 0.00 0.00 64 1009.5
20260510091026 17 225 8.0 14.5 0.00 0.00 0.00 64 1009.5
20260510085656 16 180 3.2 11.3 0.00 0.00 0.00 62 1009.9
20260510084305 16 180 3.2 11.3 0.00 0.00 0.00 62 1009.9
20260510082855 15 225 4.8 6.4 0.00 0.00 0.00 66 1010.1
20260510081545 15 225 4.8 6.4 0.00 0.00 0.00 66 1010.1
20260510080215 13 270 3.2 9.7 0.00 0.00 0.00 75 1010.7
20260510074855 13 270 3.2 9.7 0.00 0.00 0.00 75 1010.7
20260510073524 13 270 3.2 9.7 0.00 0.00 0.00 75 1010.7
20260510072125 13 270 3.2 9.7 0.00 0.00 0.00 75 1010.7
20260510070815 13 270 3.2 9.7 0.00 0.00 0.00 75 1010.7
20260510065455 13 270 3.2 4.8 0.00 0.00 0.00 77 1011.0
20260510064225 13 270 3.2 4.8 0.00 0.00 0.00 77 1011.0
20260510062739 12 180 1.6 4.8 0.00 0.00 0.00 82 1011.2
20260510061510 12 180 1.6 4.8 0.00 0.00 0.00 82 1011.2
20260510060115 9 315 4.8 9.7 0.00 0.00 0.00 92 1011.8
20260510054725 9 315 4.8 9.7 0.00 0.00 0.00 92 1011.8
20260510053319 8 0 3.2 4.8 0.00 0.00 0.00 95 1012.1
20260510052005 8 0 3.2 4.8 0.00 0.00 0.00 95 1012.1
20260510050610 8 0 3.2 4.8 0.00 0.00 0.00 95 1012.1
20260510045150 8 45 3.2 6.4 0.00 0.00 0.00 94 1012.3
20260510043929 8 45 3.2 6.4 0.00 0.00 0.00 94 1012.3
20260510042655 8 0 3.2 6.4 0.00 0.00 0.00 95 1012.4
20260510041435 8 0 3.2 6.4 0.00 0.00 0.00 95 1012.4
20260510040112 8 0 1.6 8.0 0.00 0.00 0.00 92 1012.7
20260510034750 8 0 1.6 8.0 0.00 0.00 0.00 92 1012.7
20260510033405 8 0 4.8 6.4 0.00 0.00 0.00 92 1012.6
20260510032055 8 0 4.8 6.4 0.00 0.00 0.00 92 1012.6
20260510030630 8 0 4.8 6.4 0.00 0.00 0.00 92 1012.6
20260510025343 8 0 3.2 8.0 0.00 0.00 0.00 92 1012.8
20260510023959 8 0 3.2 8.0 0.00 0.00 0.00 92 1012.8
20260510022650 9 0 4.8 6.4 0.00 0.00 0.00 89 1012.7
20260510021239 9 0 4.8 6.4 0.00 0.00 0.00 89 1012.7
20260510015940 10 0 3.2 4.8 0.00 0.00 0.00 83 1012.7
20260510014604 10 0 3.2 4.8 0.00 0.00 0.00 83 1012.7
20260510013320 11 0 1.6 4.8 0.00 0.00 0.00 81 1012.4
20260510011947 11 0 1.6 4.8 0.00 0.00 0.00 81 1012.4
20260510010512 10 0 4.8 8.0 0.00 0.00 0.00 83 1012.6
20260510005200 10 0 4.8 8.0 0.00 0.00 0.00 83 1012.6
20260510003730 10 0 4.8 8.0 0.00 0.00 0.00 83 1012.6
20260510002339 12 315 3.2 8.0 0.00 0.00 0.00 75 1012.7
20260510001025 12 315 3.2 8.0 0.00 0.00 0.00 75 1012.7
20260509235705 11 0 6.4 9.7 0.00 0.00 0.00 82 1013.0
20260509234313 11 0 6.4 9.7 0.00 0.00 0.00 82 1013.0
20260509233030 11 0 4.8 8.0 0.00 0.00 0.00 80 1013.3
20260509231645 11 0 4.8 8.0 0.00 0.00 0.00 80 1013.3
20260509230340 12 0 3.2 6.4 0.00 0.00 0.00 75 1013.1
20260509224854 12 0 3.2 6.4 0.00 0.00 0.00 75 1013.1
20260509223420 14 90 3.2 6.4 0.00 0.00 0.00 65 1012.6
20260509222135 14 90 3.2 6.4 0.00 0.00 0.00 65 1012.6
20260509220810 14 90 3.2 6.4 0.00 0.00 0.00 65 1012.6
20260509215504 15 0 1.6 16.1 0.00 0.00 0.00 59 1012.4
20260509214055 15 0 1.6 16.1 0.00 0.00 0.00 59 1012.4
20260509212810 17 45 8.0 16.1 0.00 0.00 0.00 53 1012.2
20260509211539 17 45 8.0 16.1 0.00 0.00 0.00 53 1012.2
20260509210210 17 0 9.7 19.3 0.00 0.00 0.00 52 1012.2
20260509204932 17 0 9.7 19.3 0.00 0.00 0.00 52 1012.2
20260509203600 13 0 8.0 11.3 0.00 0.00 0.00 69 1012.7
20260509202220 13 0 8.0 11.3 0.00 0.00 0.00 69 1012.7
20260509200827 13 0 8.0 11.3 0.00 0.00 0.00 69 1012.7
20260509195535 15 0 6.4 9.7 0.00 0.00 0.00 70 1012.6
20260509194130 15 0 6.4 9.7 0.00 0.00 0.00 70 1012.6
20260509192740 16 0 3.2 4.8 0.00 0.00 0.00 63 1012.2
20260509191330 16 0 3.2 4.8 0.00 0.00 0.00 63 1012.2
20260509185949 19 0 0.0 4.8 0.00 0.00 0.00 50 1011.6
20260509184627 19 0 0.0 4.8 0.00 0.00 0.00 50 1011.6
20260509183315 23 0 0.0 4.8 0.00 0.00 0.00 38 1011.1
20260509181935 23 0 0.0 4.8 0.00 0.00 0.00 38 1011.1
20260509180630 23 0 0.0 4.8 0.00 0.00 0.00 38 1011.1
20260509175306 23 180 3.2 14.5 0.00 0.00 0.00 32 1011.3
20260509174000 23 180 3.2 14.5 0.00 0.00 0.00 32 1011.3
20260509172542 22 135 3.2 14.5 0.00 0.00 0.00 33 1011.4
20260509171145 22 135 3.2 14.5 0.00 0.00 0.00 33 1011.4
20260509165913 22 45 9.7 17.7 0.00 0.00 0.00 36 1011.6
20260509164500 22 45 9.7 17.7 0.00 0.00 0.00 36 1011.6
20260509163110 22 90 9.7 17.7 0.00 0.00 0.00 32 1011.9
20260509161755 22 90 9.7 17.7 0.00 0.00 0.00 32 1011.9
20260509160500 22 45 6.4 17.7 0.00 0.00 0.00 29 1012.4
20260509155152 22 45 6.4 17.7 0.00 0.00 0.00 29 1012.4
20260509153917 22 45 6.4 17.7 0.00 0.00 0.00 29 1012.4
20260509152619 22 135 6.4 17.7 0.00 0.00 0.00 28 1012.8
20260509151212 22 135 6.4 17.7 0.00 0.00 0.00 28 1012.8
20260509145828 21 90 9.7 17.7 0.00 0.00 0.00 33 1013.2
20260509144510 21 90 9.7 17.7 0.00 0.00 0.00 33 1013.2
20260509143105 21 90 6.4 16.1 0.00 0.00 0.00 32 1013.7
20260509141800 21 90 6.4 16.1 0.00 0.00 0.00 32 1013.7
20260509140420 21 90 11.3 19.3 0.00 0.00 0.00 38 1014.0
20260509135215 21 90 11.3 19.3 0.00 0.00 0.00 38 1014.0
20260509133920 21 90 11.3 19.3 0.00 0.00 0.00 38 1014.0
20260509132645 21 90 11.3 17.7 0.00 0.00 0.00 40 1014.3
20260509131245 21 90 11.3 17.7 0.00 0.00 0.00 40 1014.3
20260509130010 21 45 9.7 17.7 0.00 0.00 0.00 44 1014.7
20260509124650 21 45 9.7 17.7 0.00 0.00 0.00 44 1014.7
20260509123220 21 135 6.4 14.5 0.00 0.00 0.00 48 1015.0
20260509121915 21 135 6.4 14.5 0.00 0.00 0.00 48 1015.0
20260509120547 18 180 3.2 11.3 0.00 0.00 0.00 57 1016.3
20260509115055 18 180 3.2 11.3 0.00 0.00 0.00 57 1016.3
20260509113825 18 180 3.2 11.3 0.00 0.00 0.00 57 1016.3
20260509112400 18 180 3.2 11.3 0.00 0.00 0.00 57 1016.3